SCP
0 0 0 0 0 0 0 0 0 0 0 0 0 0 0 0 0 0 0 0 0 0 0 0 1 1 1 0 0 0 0 0 0 0 0 0 0 0 0 0 0 0 0 0 0 0 0 0 0
0 0 0 0 0 0 0 0 0 0 0 0 0 0 0 0 0 0 0 0 0 0 0 0 1 1 1 1 0 0 0 0 0 0 0 0 0 0 0 0 0 0 0 0 0 0 0 0 0
0 0 0 0 0 0 0 0 0 0 0 0 0 0 0 0 0 0 0 0 0 0 0 0 1 1 1 1 0 0 0 0 0 0 0 0 0 0 0 0 0 0 0 0 0 0 0 0 0
0 0 0 0 0 0 0 0 0 0 0 0 0 0 0 0 0 0 0 0 0 0 0 0 1 1 1 1 0 0 0 0 0 0 0 0 0 0 0 0 0 0 0 0 0 0 0 0 0
0 0 0 0 0 0 0 0 0 0 0 0 0 0 0 0 0 0 0 0 0 0 0 0 1 1 1 1 1 0 0 0 0 0 0 0 0 0 0 0 0 0 0 0 0 0 0 0 0
0 0 0 0 0 0 0 0 0 0 0 0 0 0 0 0 0 0 0 0 0 0 0 0 1 1 1 1 1 1 1 0 0 0 0 0 0 0 0 0 0 0 0 0 0 0 0 0 0
0 0 0 0 0 0 0 0 0 0 0 0 0 0 0 0 0 0 0 0 0 0 0 0 1 1 1 1 1 1 1 1 0 0 0 0 0 0 0 0 0 0 0 0 0 0 0 0 0
0 0 0 0 -0 -0 0 0 0 0 0 0 0 0 0 0 0 0 0 0 0 0 0 0 0 0 0 1 1 1 1 0 0 0 0 0 0 0 0 0 0 0 0 0 0 0 0 0 0
0 0 0 0 0 -0 0 0 0 0 0 0 0 0 0 0 0 0 0 0 0 0 0 0 0 0 0 0 0 0 0 0 0 0 0 0 0 0 0 0 0 0 0 0 0 0 0 0 0
0 0 0 0 0 0 0 0 0 0 0 0 0 0 0 0 0 0 0 0 0 0 0 0 0 0 0 0 0 0 0 0 0 0 0 0 0 0 0 0 0 0 0 0 0 0 0 0 0
0 0 0 0 0 0 0 0 0 0 0 0 0 0 0 0 0 0 0 0 0 0 0 0 0 0 0 0 0 0 0 0 0 0 0 0 0 0 0 0 0 0 0 0 0 0 0 0 0
0 0 0 0 0 0 0 0 0 0 0 0 0 0 0 0 0 0 0 0 0 0 0 0 0 0 0 0 0 0 0 0 0 0 0 0 0 0 0 0 0 0 0 0 0 0 0 0 0
0 0 0 0 0 0 0 0 0 0 0 0 0 -0 -0 -0 0 0 0 0 0 0 0 0 0 0 0 0 0 0 0 0 0 0 0 0 0 0 0 0 0 0 0 0 0 0 0 0 0
0 0 0 0 0 0 0 0 0 0 0 0 0 0 -0 -0 0 0 0 0 0 0 0 0 0 0 0 0 0 0 0 0 0 0 0 0 0 0 0 0 0 0 0 0 0 0 0 0 0
0 0 0 0 0 0 0 0 0 0 0 0 0 0 0 0 0 0 0 0 0 0 0 0 0 0 0 0 0 0 0 0 0 0 0 0 0 0 0 0 0 0 0 0 0 0 0 0 0
0 0 0 0 0 0 0 0 0 0 0 0 0 0 0 0 0 0 0 0 0 0 0 0 0 0 0 0 0 0 0 0 0 0 0 0 0 0 0 0 0 0 0 0 0 0 0 0 0
0 0 0 0 0 0 0 0 0 0 0 0 0 0 0 0 0 0 0 0 0 0 0 0 0 0 0 0 0 0 0 0 0 0 0 0 0 0 0 0 0 0 0 0 0 0 0 0 0
0 0 0 0 0 0 0 0 0 0 0 0 0 0 0 0 0 0 0 0 0 0 0 0 0 0 0 0 0 0 0 0 0 0 0 0 0 0 0 0 0 0 0 0 0 0 0 0 0
0 0 0 0 0 0 0 0 0 0 0 0 0 0 0 0 0 0 0 0 0 0 0 0 0 0 0 0 0 0 0 0 0 0 0 0 0 0 0 0 0 0 0 0 0 0 0 0 0
0 0 0 0 0 0 0 0 0 0 0 0 0 0 0 0 0 0 0 0 0 0 0 0 0 0 0 0 0 0 0 0 0 0 0 0 0 0 0 0 0 0 0 0 0 0 0 0 0
0 0 0 0 0 0 0 0 0 0 0 0 0 0 0 0 0 0 0 0 0 0 0 0 0 0 0 0 0 0 0 0 0 0 0 0 0 0 0 0 0 0 0 0 0 0 0 0 0
0 0 0 0 0 0 0 0 0 0 0 0 0 0 0 0 0 0 0 0 0 0 0 0 0 0 0 0 0 0 0 0 0 0 0 0 0 0 0 0 0 0 0 0 0 0 0 0 0
0 0 0 0 0 0 0 0 0 0 0 0 0 0 0 0 0 0 0 0 0 0 0 0 0 0 0 0 0 0 0 0 0 0 0 0 0 0 0 0 0 0 0 0 0 0 0 0 0
0 0 0 0 0 0 0 0 0 0 0 0 0 0 0 0 0 0 0 0 0 0 0 0 0 0 0 0 0 0 0 0 0 0 0 0 0 0 0 0 0 0 0 0 0 0 0 0 0
0 0 0 0 0 0 0 0 0 0 0 0 0 0 0 0 0 0 0 0 0 0 0 0 0 0 0 0 0 0 0 0 0 0 0 0 0 0 0 0 0 0 0 0 0 0 0 0 0
0 0 0 0 0 0 0 -0 -0 0 0 0 0 0 0 0 0 0 0 0 0 0 0 0 0 0 0 0 0 0 0 0 0 0 0 0 0 0 0 0 0 0 0 0 0 0 0 0 0
0 0 0 0 0 0 0 -0 0 0 0 0 0 0 0 0 0 0 0 0 0 0 0 0 0 0 0 0 0 0 0 0 0 0 0 0 0 0 0 0 0 0 0 0 0 0 0 0 0
0 0 0 0 0 0 0 0 0 0 0 0 0 0 0 0 0 0 0 0 0 0 0 0 0 0 0 0 0 0 0 0 0 0 0 0 0 0 0 0 0 0 0 0 0 0 0 0 0
0 0 0 0 0 0 0 0 0 0 0 0 0 0 0 0 0 0 0 0 0 0 0 0 0 0 0 0 0 0 0 0 0 0 0 0 0 0 0 0 0 0 0 0 0 0 0 0 0
0 0 0 0 0 0 0 0 0 0 0 0 0 0 0 0 0 0 0 0 0 0 0 0 0 0 0 0 0 0 0 0 0 0 0 0 0 0 0 0 0 0 0 0 0 0 0 0 0
Wind_Speed
9 6 2 4 6 4 2 4 3 2 2 2 1 2 4 3 3 4 2 4 7 8 7 9 9 9 8 9 9 8 8 8 8 8 8 9 8 9 8 8 8 8 8 8 8 8 7 7 7
4 3 5 6 5 2 4 4 3 4 3 2 2 2 3 2 2 5 3 4 8 9 7 7 9 9 9 8 9 8 8 8 8 8 8 8 8 8 8 8 8 8 8 8 7 7 7 6 6
5 2 5 5 3 6 5 3 4 3 3 1 2 2 3 2 2 2 3 7 8 7 6 7 9 9 9 8 8 8 8 8 8 8 8 8 8 8 8 7 8 8 8 7 7 7 6 6 6
3 5 5 4 3 4 4 3 2 1 3 2 2 3 2 2 1 2 6 9 8 6 5 6 8 8 8 8 8 8 8 8 8 8 8 8 8 8 8 8 7 7 7 7 7 7 6 5 5
4 4 4 0 4 4 3 3 2 1 1 1 2 2 2 3 3 5 6 8 8 6 4 6 7 7 8 8 8 8 9 8 8 9 8 8 8 8 8 8 7 6 7 7 6 6 5 5 5
4 4 3 3 4 3 3 2 1 1 1 0 2 2 0 0 3 4 5 5 6 6 4 5 7 7 7 7 7 8 8 9 9 9 8 8 8 8 8 8 7 6 6 6 6 5 5 5 5
4 4 3 4 3 3 3 1 2 1 1 2 3 2 1 2 1 3 4 4 5 5 4 3 4 5 6 6 6 7 8 8 9 8 8 8 7 7 8 7 6 6 6 5 5 5 4 4 4
4 4 2 3 4 5 2 0 1 2 3 1 3 4 4 4 2 3 3 4 3 4 4 3 3 3 3 4 6 6 7 8 8 8 8 8 7 7 7 6 5 5 5 5 5 4 4 4 4
4 3 3 5 5 4 2 0 2 1 1 1 1 3 4 4 3 3 3 2 2 2 2 3 3 3 3 3 5 5 6 7 7 7 8 7 4 4 4 4 5 5 5 4 4 4 4 4 4
4 4 7 4 3 3 2 2 2 1 2 2 2 2 1 2 3 3 2 2 2 3 3 3 4 3 3 3 3 2 3 4 4 4 5 3 3 2 4 5 5 5 4 3 3 2 3 3 2
4 6 4 4 4 3 2 3 2 3 6 7 6 5 4 3 3 4 4 4 4 4 4 4 4 4 4 3 3 2 2 2 3 4 4 4 3 2 2 2 2 2 2 1 1 2 1 1 1
3 5 5 4 3 3 4 3 3 6 10 7 8 7 6 5 6 6 5 4 3 4 5 5 5 5 4 4 3 2 2 2 2 3 5 4 3 2 2 1 1 1 1 1 1 1 1 1 2
5 4 4 5 5 5 5 7 6 9 10 6 6 6 7 8 7 7 6 5 5 4 4 5 5 5 5 4 3 3 3 3 3 3 4 4 4 3 3 2 1 1 1 1 1 1 1 2 2
4 4 5 6 6 5 6 8 5 11 7 6 7 8 8 8 8 7 6 6 6 5 5 5 6 5 5 4 4 4 3 3 3 3 4 5 4 3 3 3 2 1 1 1 1 1 1 1 1
1 3 6 6 6 5 3 8 10 11 5 7 8 8 8 8 7 8 8 7 7 6 6 6 6 5 5 5 5 4 3 3 3 3 4 5 4 4 3 3 2 2 2 1 1 2 2 2 2
1 1 5 6 5 5 4 11 9 6 6 8 8 7 7 7 8 8 7 7 7 7 6 6 5 5 5 5 4 3 3 3 3 3 3 4 5 5 4 3 2 2 2 2 2 2 2 2 2
1 3 6 6 4 4 6 10 8 5 7 9 8 8 7 7 7 7 7 7 7 7 6 6 5 6 5 5 4 4 3 3 3 3 3 4 5 5 4 3 3 3 2 1 2 2 2 2 2
6 5 5 7 4 4 6 12 11 6 8 10 9 7 7 8 9 8 7 7 6 5 5 6 6 6 5 4 3 3 3 2 2 3 3 4 4 5 4 3 3 3 3 2 2 2 2 2 2
4 5 8 8 4 4 9 13 13 8 7 8 8 8 8 9 8 6 6 6 5 5 5 6 6 6 5 4 4 4 3 3 2 3 3 4 4 5 4 3 3 3 3 3 3 2 3 2 2
7 8 9 8 4 5 8 13 11 9 8 8 9 9 8 7 5 5 6 5 6 6 6 5 6 7 6 5 4 3 3 3 3 3 3 4 4 5 4 4 4 3 3 3 3 3 2 1 1
9 10 9 7 5 4 5 10 7 5 5 5 6 7 7 8 7 6 6 7 6 7 7 6 6 7 7 6 4 3 2 2 1 2 2 3 4 4 4 5 5 4 4 4 3 4 3 2 0
10 8 8 6 3 5 1 7 8 5 5 6 6 6 7 7 7 6 7 7 8 8 6 7 7 6 6 7 6 7 5 3 3 3 3 3 4 4 4 4 5 5 4 4 4 3 2 4 2
8 4 5 5 4 4 3 4 10 3 6 7 7 7 7 7 7 7 8 8 7 7 6 6 6 6 6 7 7 7 5 4 2 2 3 3 3 4 4 4 3 4 3 4 4 3 3 3 3
4 0 1 1 1 5 6 6 9 5 7 6 5 6 6 6 6 6 6 6 5 5 5 5 6 6 7 7 7 7 7 5 5 4 4 3 2 3 4 4 3 3 3 4 4 4 4 3 2
3 3 1 2 2 8 4 5 11 7 6 6 6 7 6 5 6 5 5 6 6 7 7 6 7 7 7 7 7 7 7 7 7 7 6 4 3 3 4 4 4 3 3 3 3 4 4 4 4
7 8 7 6 6 5 2 8 9 6 4 4 4 4 4 5 5 6 6 7 7 8 8 8 9 8 8 8 7 6 7 5 5 6 5 5 5 4 5 4 4 4 4 4 3 3 3 3 3
6 6 6 4 2 3 6 6 7 2 1 1 1 1 3 4 4 5 5 6 7 8 8 9 9 9 9 8 7 6 6 6 6 5 5 4 4 4 5 5 4 4 4 4 4 3 3 3 3
5 6 4 5 5 6 5 6 6 4 3 2 2 2 3 3 3 3 4 4 5 6 6 7 8 8 8 8 8 6 7 7 7 6 6 5 4 4 5 5 5 4 4 4 4 3 3 3 3
6 5 5 4 4 5 5 7 5 4 3 3 3 3 4 3 3 3 3 3 3 3 4 6 7 7 7 8 7 7 7 6 6 6 7 6 5 6 6 6 6 6 6 5 4 4 4 4 3
7 8 8 6 6 5 4 8 3 1 1 1 1 3 3 2 2 2 2 2 2 3 4 5 6 6 7 7 7 7 6 6 6 6 6 6 6 6 6 6 6 6 6 6 6 5 5 5 5
Wind_Direction
335 333 55 58 59 59 217 238 232 271 273 253 266 126 130 125 149 164 176 142 135 144 150 151 149 145 142 139 135 134 135 133 129 124 123 126 127 128 125 122 121 118 114 109 106 103 99 98 96
334 349 53 61 94 142 250 241 229 242 246 287 348 79 82 80 88 113 125 146 138 142 146 150 148 148 145 143 142 142 140 139 135 130 127 127 127 128 129 126 124 120 114 110 108 105 102 102 99
336 40 79 79 132 184 211 221 209 246 286 338 4 40 89 111 107 138 159 143 130 134 142 153 146 150 149 147 148 149 146 143 139 136 130 129 127 124 125 124 122 119 116 115 115 113 108 106 101
46 45 58 84 208 226 212 233 226 295 335 15 61 43 38 17 147 157 140 131 126 131 142 152 147 150 152 151 153 154 151 147 142 140 136 133 129 125 119 116 118 119 120 120 120 119 115 114 111
61 76 75 100 239 245 236 245 232 248 286 354 78 68 9 349 55 104 122 126 130 134 138 152 149 150 152 155 155 155 154 151 144 140 139 134 128 124 120 115 114 120 124 123 122 122 119 117 112
59 72 105 209 236 250 263 255 186 189 240 66 98 95 226 326 78 95 111 124 132 137 139 152 154 150 152 154 157 158 157 151 144 139 135 131 128 124 119 116 114 116 122 123 121 119 117 117 108
105 109 170 202 220 248 257 270 141 179 227 226 151 132 206 246 163 115 105 116 126 134 139 146 157 159 154 153 155 157 156 150 143 139 134 128 124 122 119 117 119 119 119 118 120 116 112 113 105
125 113 180 213 210 233 250 309 171 181 230 252 143 162 206 221 180 97 88 98 125 140 144 151 156 154 164 166 151 149 154 148 143 136 130 124 121 122 119 115 117 118 120 121 122 116 104 93 90
98 94 207 216 206 224 222 297 301 279 208 286 207 196 209 181 131 92 71 64 125 155 166 160 163 162 164 167 157 146 150 148 142 137 130 121 121 124 121 116 116 115 114 118 123 122 105 80 75
106 174 220 218 206 207 232 214 232 283 277 272 298 297 203 159 147 153 176 196 190 188 189 178 171 166 161 162 145 144 148 146 143 140 138 129 124 123 120 128 126 122 112 110 120 118 94 69 58
165 202 224 242 239 226 243 246 209 194 242 221 211 213 206 204 197 199 209 208 214 202 190 186 177 167 162 154 145 139 136 138 144 145 141 132 123 122 111 116 119 110 104 84 85 66 63 85 94
201 237 228 242 247 243 242 241 245 221 233 221 205 197 196 210 215 214 213 213 225 218 202 190 180 172 170 160 154 149 152 150 152 153 149 144 138 135 134 132 126 112 91 109 88 102 108 105 110
228 254 252 251 261 250 250 246 246 251 247 238 222 213 210 213 221 223 212 208 206 220 215 194 185 180 173 165 165 156 166 164 162 156 157 156 154 158 153 149 144 149 148 147 126 113 119 114 108
231 247 267 261 254 248 242 256 239 256 239 230 225 221 220 218 220 221 214 213 212 213 218 197 184 184 175 170 170 168 173 166 160 164 168 161 157 158 157 155 160 169 176 175 147 129 123 119 112
270 296 291 256 235 235 224 266 236 245 229 230 232 226 224 222 218 216 212 204 201 202 209 200 185 178 177 173 172 170 173 163 160 167 169 163 155 156 154 158 166 176 165 141 107 98 90 100 99
337 302 279 264 214 211 183 258 252 234 214 232 235 229 224 226 219 218 214 207 199 194 195 195 182 173 179 174 171 164 168 163 161 160 166 165 160 158 154 160 172 164 141 128 124 115 93 80 91
249 250 255 279 223 194 200 253 261 231 213 232 237 234 227 229 229 221 209 204 200 197 190 186 175 172 176 175 168 163 162 163 164 163 169 169 163 161 159 164 168 155 135 128 138 110 109 102 89
220 229 247 249 246 203 233 258 270 253 225 233 236 235 227 226 230 220 208 202 193 188 187 184 173 171 167 160 153 152 151 165 165 168 175 171 167 163 156 155 158 153 141 129 118 112 94 114 124
220 229 253 256 243 238 251 264 269 259 240 238 236 232 228 232 233 213 203 196 183 178 180 190 175 172 159 154 164 166 176 181 180 179 178 175 168 162 155 153 153 154 150 149 136 116 102 81 102
241 254 264 280 257 243 264 269 268 254 236 229 231 227 225 227 232 215 203 196 186 185 187 187 184 176 172 170 169 164 166 176 183 180 178 174 167 165 161 159 160 156 140 135 135 123 111 106 116
236 233 246 259 309 302 298 289 270 264 238 236 230 224 217 210 214 214 205 201 190 193 190 188 189 181 174 162 147 132 119 108 167 175 178 178 164 163 167 165 161 160 152 159 160 151 136 149 159
245 231 233 247 268 281 249 287 281 259 262 246 242 236 224 215 210 206 204 199 196 198 187 184 184 180 173 162 160 158 163 176 200 189 180 177 169 161 159 161 164 165 160 162 172 157 147 147 156
230 226 219 228 218 272 241 240 278 265 257 251 242 238 234 219 208 207 206 202 200 191 180 181 176 178 172 168 168 168 171 179 179 174 168 170 171 165 161 158 162 169 165 165 166 157 154 156 163
207 98 10 57 124 258 221 201 271 237 233 243 237 237 233 221 215 214 212 196 191 183 175 174 174 178 173 172 173 174 174 174 175 182 186 182 174 168 165 159 163 172 167 171 171 164 164 164 163
166 135 39 309 240 248 205 204 250 246 235 227 232 235 229 217 211 211 204 193 187 182 180 176 176 178 177 176 179 180 178 178 186 185 187 182 178 177 180 171 171 176 178 173 168 167 173 173 173
196 175 180 208 223 265 236 230 252 258 256 242 232 229 225 221 214 210 205 197 193 188 184 179 180 180 179 181 182 182 177 177 189 192 191 189 187 183 178 175 179 178 175 171 169 171 180 175 177
172 202 193 168 210 254 257 271 292 290 311 305 253 237 246 235 223 217 208 200 195 191 190 186 182 181 182 183 179 181 178 177 184 188 191 194 190 179 173 174 178 177 176 174 171 176 183 177 186
179 164 143 172 195 239 264 256 246 263 266 287 298 289 273 262 242 229 214 202 198 196 191 186 183 185 183 182 182 183 186 185 183 183 189 194 190 178 176 177 181 180 180 175 174 175 180 175 188
171 180 179 176 187 189 240 258 228 219 228 222 256 270 265 248 243 240 224 203 194 184 180 184 184 180 182 184 181 181 186 185 185 188 191 189 189 182 187 184 183 185 184 180 179 184 180 181 188
189 187 171 182 217 201 210 258 263 211 223 189 256 291 290 274 258 251 225 193 181 183 189 186 183 183 185 183 180 183 187 185 188 194 194 188 187 186 189 183 182 187 186 183 183 187 188 188 194